CAPE
1572 1692 1552 139 67 144 232 121 172 344 300 149 263 505 611 493 539 88 88 228 386 1290 1668 2130 2611 1988 1614 1657 2197 1806 1663 2108 2060 2061 2123 1358 1953 2077 2026 2142 2210 1997 1985 1965 1814 1829 1897 1721 1709
999 17 24 254 35 32 54 232 500 454 354 386 468 339 320 189 142 196 180 514 759 1468 1690 1927 2488 2285 1595 2045 2332 1989 2172 2128 2096 1918 1899 1247 1551 2152 2127 2179 2124 1870 2010 1955 2024 2158 2050 1686 1948
221 342 95 14 61 24 118 182 396 544 834 626 546 375 285 219 261 105 327 588 953 1306 1470 1664 2610 2521 1618 2333 2111 2027 2094 2157 2306 1933 2050 1588 1068 1443 2130 2187 2161 2081 1335 1574 1665 1536 1654 1965 2172
1457 360 512 201 139 392 401 321 423 540 453 390 450 360 328 374 48 93 321 572 681 998 1359 2259 2479 1838 1957 2317 2207 1801 1978 2150 2317 2026 2233 1782 1874 1753 1504 1480 2027 2093 2204 2082 2069 2340 2219 2308 2106
363 223 702 322 311 513 620 328 396 601 708 526 373 380 364 174 0 96 150 122 594 1066 1582 1844 2623 2483 2214 2232 2012 2322 2212 2447 2339 2203 2136 1844 1639 1417 1603 1917 1653 1574 1704 1794 1969 1858 2257 2166 2167
535 342 417 274 481 177 636 490 604 529 559 431 382 281 213 0 6 39 17 498 974 1413 1613 1895 2517 2583 2341 2238 1886 2289 2430 2350 2299 1857 1602 1488 1413 1500 1766 1632 1557 1901 1708 1670 2124 1901 1713 1823 2013
386 209 131 389 628 717 216 361 529 422 432 519 464 385 46 15 29 28 379 902 1209 1423 1791 1835 1800 2006 2322 2601 2565 2502 2199 1865 1632 1251 1064 1200 1547 2018 1974 1711 1456 1567 1634 1377 1088 1629 2175 2006 1590
9 24 86 86 653 483 551 381 572 330 503 420 241 225 67 36 51 475 942 1140 1187 1388 1618 1598 1628 1696 1821 1987 2381 2180 1833 1655 1502 1213 1458 1695 2031 2088 1280 150 711 1500 1438 1655 1605 1585 1398 1444 1755
11 44 38 92 784 838 669 833 899 496 468 446 547 216 109 179 628 725 749 903 1014 1257 1403 1520 1539 1438 1407 1431 1559 1869 1813 1724 1423 1258 2127 1645 17 103 514 178 171 1274 1510 1447 1724 1714 1801 1844 1730
17 19 43 114 257 723 870 566 300 402 593 530 420 294 193 619 657 603 646 925 1034 1088 1236 1376 1375 1320 1344 1653 1400 1206 1219 1135 751 1315 197 3 2 0 0 7 67 826 1184 1578 1362 1868 1809 1807 1221
27 64 86 81 229 605 839 603 521 577 443 366 387 309 79 444 488 570 584 785 868 894 1025 1054 1029 1064 1215 1404 994 799 789 723 871 635 19 0 0 69 62 0 0 26 395 476 453 1112 1505 1392 1031
43 0 0 93 241 83 221 787 691 364 469 365 394 358 149 216 366 330 416 556 537 645 824 754 650 828 920 943 887 797 702 530 564 168 8 0 2 0 0 0 0 23 69 8 64 84 645 847 783
27 1 3 105 210 95 0 697 602 542 517 382 72 347 246 200 169 281 297 365 293 386 341 424 495 535 702 924 720 771 657 618 511 144 26 14 0 0 0 0 0 19 30 40 13 137 432 675 679
51 74 68 173 115 77 0 97 404 315 302 120 28 10 0 0 0 58 63 100 48 89 113 205 211 205 429 771 616 686 683 587 395 160 96 4 0 0 0 0 1 3 1 1 0 82 181 213 221
112 199 244 278 148 49 0 260 295 220 158 72 15 7 8 0 0 0 8 0 0 0 80 88 108 261 636 747 745 533 535 353 192 56 1 0 0 0 0 0 0 0 0 0 35 87 135 82 200
125 65 10 108 158 26 0 163 175 162 149 70 39 40 46 14 0 0 0 0 0 0 0 0 472 454 592 681 785 599 329 243 122 25 0 0 0 0 0 0 0 0 0 0 0 12 67 227 165
19 2 20 145 45 13 0 0 7 103 109 102 70 67 105 42 3 0 0 0 0 0 27 57 420 337 618 578 685 557 376 139 36 10 0 0 4 0 6 2 0 0 0 2 17 115 92 77 130
4 8 1 61 119 154 11 4 0 281 123 65 86 106 85 53 16 0 0 0 0 0 35 52 88 144 522 536 482 371 228 94 0 0 0 0 105 98 55 7 0 5 29 14 43 55 78 195 104
42 65 110 80 155 164 252 326 0 75 0 86 148 48 136 74 16 0 0 0 0 7 0 28 130 79 178 460 525 603 483 267 313 77 211 196 219 380 340 135 77 43 123 115 73 132 97 85 237
66 72 93 176 178 327 147 4 98 81 5 220 285 119 64 67 8 0 0 29 108 193 88 295 131 257 457 569 562 581 513 483 464 589 652 511 509 491 438 352 252 160 127 99 114 156 129 120 104
0 63 47 42 181 443 482 393 118 7 19 423 332 25 69 69 47 16 20 178 374 361 284 524 317 181 546 907 640 822 703 803 807 811 641 548 460 253 221 366 318 174 142 149 85 64 89 107 81
5 20 20 122 25 118 261 173 86 27 0 28 331 91 126 37 110 111 93 156 479 486 422 500 1327 845 528 925 863 924 800 757 608 617 618 473 379 606 550 474 445 288 144 222 317 213 35 48 68
5 1 74 94 19 36 159 18 3 39 36 71 140 36 8 106 151 170 223 162 490 543 570 592 1451 1641 1235 1137 1018 914 868 707 542 641 645 464 332 431 850 749 628 475 356 376 449 307 99 120 42
44 25 13 9 0 0 22 36 0 2 0 0 0 0 15 365 274 244 238 268 407 622 846 1198 1557 2049 1662 1556 1565 1154 983 948 848 761 677 622 733 705 993 1186 1024 815 633 504 384 261 111 220 217
0 0 2 50 34 59 0 0 0 108 0 29 135 124 181 530 551 639 585 357 541 1000 1124 1776 1738 2026 2132 1785 1586 1588 1486 1217 1205 1046 955 759 785 844 1125 1185 884 698 480 506 423 249 177 79 206
0 0 0 29 37 26 0 0 34 203 277 142 288 119 472 647 680 688 560 627 455 769 857 1974 1982 1964 2634 2332 2279 1954 1716 1770 1327 854 737 1003 752 532 661 756 846 749 498 442 423 431 393 290 292
11 3 0 0 0 2 6 78 160 2 0 62 423 555 197 527 63 0 0 33 686 225 1331 2543 2742 2836 2668 2800 2245 2145 2003 1183 845 1112 700 728 680 846 223 386 365 512 311 167 188 119 4 10 29
15 0 8 0 5 22 0 41 92 0 0 0 4 401 162 342 269 0 0 0 0 105 1946 2472 2182 1899 1709 1481 1376 794 529 570 719 831 706 441 56 129 272 292 384 218 48 12 0 0 0 0 4
17 18 0 0 0 0 25 118 50 0 0 1 30 16 116 92 202 66 25 386 1296 2259 2319 1970 1725 1417 1217 1058 850 640 541 446 371 596 283 555 300 234 0 67 24 0 0 0 0 0 0 89 5
0 0 1 5 0 0 9 72 131 7 0 21 9 151 495 12 33 975 1943 1843 1671 1537 1431 1198 1145 1217 1095 878 708 272 54 28 4 22 39 39 142 311 256 0 0 0 1 0 0 31 48 98 28
CIN
-228 -228 -262 -443 -171 -177 -58 -30 -50 -54 -58 -94 -74 -48 -99 -139 -77 -140 -306 -177 -97 0 0 0 0 0 0 0 0 0 0 0 0 0 0 -3 0 0 0 0 0 0 0 0 0 0 0 0 0
-306 -170 -567 -396 -204 -141 -98 -75 -19 -67 -96 -89 -78 -95 -139 -198 -255 -241 -254 -98 -69 0 0 -1 0 0 0 0 0 0 0 0 0 0 0 -7 -3 0 0 0 0 0 0 0 0 0 0 0 0
-391 -310 -274 -244 -197 -92 -100 -66 -42 -73 -38 -53 -84 -126 -168 -255 -237 -296 -206 -112 -51 -7 -3 -3 0 0 0 0 0 0 0 0 0 0 0 -1 -17 -3 0 0 0 0 0 0 0 0 0 0 0
-196 -351 -212 -104 -107 -81 -65 -57 -48 -58 -159 -65 -108 -148 -163 -150 -360 -367 -205 -124 -92 -39 -13 0 0 0 0 0 0 0 0 0 0 0 0 0 0 0 0 0 0 0 0 0 0 0 -1 0 0
-350 -261 -105 -48 -89 -127 -76 -52 -78 -78 -105 -73 -80 -116 -121 -196 0 -316 -273 -247 -133 -40 -2 0 0 0 0 0 0 0 0 0 0 0 0 0 0 0 0 0 0 0 0 -1 0 -1 -2 -4 -2
-175 -187 -47 -33 -71 -136 -97 -55 -49 -59 -75 -92 -109 -132 -115 0 -148 -296 -315 -149 -98 -36 -4 0 0 0 0 0 0 0 0 0 0 0 0 -1 -2 0 0 0 0 0 0 0 0 0 -7 -12 -5
-151 -113 -57 -42 -83 -77 -75 -88 -71 -68 -65 -75 -104 -111 -290 -363 -361 -228 -155 -110 -80 -55 -15 -3 -2 -1 0 0 0 0 0 0 0 -4 -16 -3 0 0 -3 -6 -1 0 0 -5 -7 -2 0 -2 -11
-214 -97 -88 -74 -55 -56 -64 -58 -53 -74 -41 -72 -116 -145 -247 -334 -342 -124 -101 -95 -81 -43 -32 -37 -24 -10 -5 -2 0 0 0 0 -4 -21 -6 -3 -2 -4 -20 -81 -30 -3 0 0 -3 -1 -7 -11 -7
-98 -92 -92 -83 -44 -39 -53 -31 -25 -39 -70 -50 -34 -107 -184 -203 -93 -124 -100 -78 -67 -42 -49 -28 -39 -62 -46 -21 -9 -2 0 -4 -9 -6 0 -11 -244 -149 -69 -105 -61 -16 -1 0 0 0 0 0 -2
-72 -159 -172 -89 -55 -50 -34 -28 -37 -45 -61 -60 -73 -58 -129 -89 -88 -118 -106 -80 -90 -89 -68 -62 -64 -87 -76 -24 -42 -54 -52 -46 -58 -25 -132 -104 -224 0 0 -44 -89 -18 -18 -6 0 0 -4 -2 -30
-300 -144 -219 -201 -122 -37 -30 -21 -15 -84 -89 -99 -112 -88 -142 -79 -97 -111 -144 -166 -181 -174 -108 -107 -115 -124 -124 -77 -119 -134 -123 -119 -88 -90 -224 0 0 -132 -103 0 0 -168 -88 -57 -31 -24 -34 -37 -54
-213 0 -34 -245 -150 -150 -96 -41 -32 -64 -79 -86 -98 -95 -108 -103 -110 -136 -143 -135 -154 -162 -161 -170 -177 -164 -154 -120 -130 -142 -144 -145 -118 -174 -284 0 -182 0 0 0 0 -147 -136 -182 -159 -165 -75 -74 -70
-299 -123 -150 -284 -108 -105 0 -43 -38 -63 -82 -73 -125 -83 -79 -96 -88 -86 -125 -125 -150 -170 -172 -191 -198 -193 -173 -152 -174 -145 -156 -138 -133 -191 -227 -178 0 0 0 0 0 -113 -128 -139 -184 -131 -103 -80 -91
-207 -266 -328 -176 -173 -143 0 -71 -48 -61 -68 -87 -163 -274 -87 0 0 -161 -116 -109 -175 -190 -199 -209 -249 -238 -209 -161 -176 -154 -143 -149 -149 -192 -165 -194 0 0 0 0 -78 -50 -54 -39 0 -90 -92 -97 -90
-222 -205 -232 -205 -196 -159 0 -67 -54 -75 -64 -99 -163 -239 -293 0 0 0 -90 0 0 0 -165 -212 -242 -234 -195 -170 -171 -187 -177 -178 -184 -223 -19 0 0 0 0 0 0 0 0 0 -96 -81 -95 -147 -109
-166 -320 -239 -221 -170 -155 0 -34 -116 -102 -72 -110 -162 -193 -223 -323 0 -4 0 0 0 0 0 0 -146 -174 -170 -163 -183 -191 -206 -201 -226 -266 0 0 0 0 0 0 0 0 0 0 0 -104 -88 -76 -100
-200 -114 -180 -148 -203 -243 0 0 -108 -150 -78 -148 -166 -170 -173 -288 -308 0 0 0 0 0 -225 -180 -156 -189 -189 -218 -211 -206 -205 -234 -242 -284 0 0 -110 0 -84 -82 0 0 0 -31 -68 -76 -115 -125 -85
-103 -185 -177 -193 -215 -185 -228 -35 0 -182 -227 -208 -204 -188 -172 -251 -304 0 0 0 0 0 -259 -232 -208 -222 -214 -251 -242 -222 -224 -266 0 0 0 0 -158 -165 -155 -171 0 -143 -121 -78 -92 -89 -112 -79 -68
-224 -142 -137 -165 -218 -195 -187 -175 0 -339 0 -291 -208 -313 -197 -218 -230 0 0 0 0 -269 0 -302 -232 -260 -283 -259 -215 -184 -174 -212 -170 -237 -146 -134 -118 -70 -83 -136 -142 -178 -140 -101 -99 -89 -77 -80 -49
-116 -94 -101 -105 -149 -187 -291 -131 -369 -433 -361 -232 -207 -228 -244 -235 -234 0 0 -265 -214 -200 -226 -242 -267 -282 -253 -207 -216 -197 -200 -206 -187 -146 -121 -113 -83 -76 -95 -101 -107 -125 -130 -111 -91 -65 -57 -44 -50
0 -71 -114 -95 -149 -158 -221 -261 -303 -457 -475 -286 -328 -381 -280 -192 -214 -275 -287 -276 -231 -235 -268 -246 -322 -374 -293 -254 -268 -215 -199 -164 -148 -141 -142 -150 -145 -178 -171 -128 -130 -147 -141 -115 -110 -93 -57 -31 -41
-68 -115 -51 -132 -142 -119 -164 -140 -244 -378 0 -350 -309 -348 -218 -278 -215 -252 -278 -256 -263 -259 -244 -269 -249 -320 -349 -311 -269 -191 -200 -172 -197 -176 -175 -177 -188 -149 -152 -150 -140 -164 -164 -120 -90 -83 -98 -81 -71
-34 -10 -90 -97 -131 -118 -182 -85 -231 -370 -364 -311 -269 -287 -340 -340 -326 -201 -239 -332 -244 -227 -286 -302 -235 -259 -284 -274 -255 -252 -226 -230 -225 -202 -183 -213 -214 -208 -124 -121 -128 -136 -131 -116 -91 -73 -97 -79 -109
-47 -105 -109 -109 0 0 -87 -109 0 -191 0 0 0 0 -239 -370 -414 -306 -262 -279 -265 -236 -261 -253 -232 -225 -226 -215 -244 -250 -225 -192 -196 -197 -167 -158 -148 -143 -109 -68 -80 -99 -102 -97 -132 -116 -139 -88 -73
0 0 -81 -36 -52 -38 0 0 0 -351 0 -151 -292 -298 -360 -393 -457 -305 -262 -380 -341 -216 -208 -200 -241 -210 -199 -164 -167 -184 -177 -176 -142 -133 -124 -112 -125 -114 -71 -73 -83 -106 -83 -50 -53 -88 -91 -139 -107
-2 0 0 -40 -46 -90 0 0 -181 -365 -327 -357 -456 -309 -396 -371 -437 -301 -204 -320 -429 -322 -322 -155 -166 -212 -168 -156 -127 -125 -121 -95 -111 -118 -91 -66 -97 -150 -101 -86 -96 -92 -94 -43 -57 -70 -51 -59 -56
-63 -37 0 0 0 -24 -240 -267 -214 -282 0 -345 -375 -394 -460 -407 -473 0 0 -461 -290 -478 -329 -158 -173 -134 -128 -97 -128 -78 -76 -149 -171 -121 -153 -159 -89 -81 -186 -164 -149 -110 -114 -133 -118 -113 -209 -273 -194
-45 0 -56 -12 -56 -115 0 -186 -112 0 0 0 -397 -307 -474 -407 -470 0 0 0 -66 -688 -310 -215 -231 -209 -241 -233 -204 -256 -243 -234 -203 -144 -130 -141 -229 -257 -173 -141 -104 -111 -149 -84 0 0 0 0 -91
-120 -107 0 0 0 0 -126 -143 -418 0 0 -50 -566 -509 -476 -465 -461 -588 -692 -511 -381 -227 -191 -222 -240 -291 -249 -247 -250 -248 -246 -256 -240 -136 -189 -103 -161 -162 0 -218 -215 0 0 0 0 0 0 -95 -145
0 -4 -100 -94 0 0 -115 -165 -373 -400 0 -680 -547 -380 -296 -483 -512 -277 -167 -254 -260 -237 -234 -288 -293 -269 -243 -249 -253 -359 -503 -506 -547 -416 -348 -351 -237 -112 -101 0 0 0 -8 0 0 -44 -58 -32 -48
Wind_Speed
7 4 2 3 7 5 3 6 9 10 7 3 12 4 8 3 2 4 13 13 18 13 12 14 17 18 17 15 15 16 14 13 13 13 13 12 13 13 12 12 11 12 12 13 13 13 13 15 15
6 4 4 3 6 4 4 1 3 10 11 14 12 10 5 4 6 14 11 18 18 14 11 12 18 17 16 14 15 15 14 14 13 12 12 12 13 13 12 12 11 13 12 11 12 13 12 12 12
4 4 4 4 2 1 2 3 6 7 7 1 7 9 5 6 15 9 16 20 18 13 11 13 18 17 16 14 15 14 13 13 13 12 11 12 13 12 12 11 12 10 12 11 10 11 11 12 10
3 4 3 5 3 2 4 5 11 9 8 11 10 9 6 3 5 12 20 20 16 12 10 16 18 19 17 15 15 14 12 13 14 13 12 12 11 10 11 10 10 10 9 11 11 10 8 9 9
3 3 3 2 2 5 4 5 6 6 7 10 6 6 9 9 20 21 20 18 17 13 11 14 17 17 16 15 14 14 13 13 14 14 13 11 11 10 10 9 8 9 7 6 7 7 6 6 7
1 4 1 4 5 4 4 3 9 12 14 17 16 14 5 17 21 18 19 18 16 15 12 12 17 17 16 16 15 13 15 15 14 13 12 11 11 9 8 8 8 8 9 7 6 6 7 4 3
3 1 3 7 7 4 4 4 8 17 15 11 17 8 11 16 17 17 16 15 15 16 13 11 11 15 18 16 16 15 14 13 13 12 11 11 10 9 8 7 2 6 7 8 7 7 6 7 6
4 2 2 2 5 2 4 2 8 17 7 18 15 6 19 14 20 17 16 14 13 11 11 11 10 8 7 8 16 15 13 13 13 12 12 12 11 11 8 6 4 4 7 9 9 8 9 9 8
5 5 6 1 4 4 4 3 6 8 16 9 4 15 22 21 20 19 17 13 12 10 9 8 8 9 7 6 9 13 15 13 13 10 11 9 3 4 7 7 4 7 7 9 10 11 11 11 10
7 5 8 12 2 8 6 6 10 12 10 5 10 15 21 24 22 20 17 15 15 15 13 11 10 11 9 8 6 6 7 5 5 5 5 4 4 3 4 7 6 9 9 12 11 12 12 11 4
6 5 11 13 18 3 8 6 6 14 4 17 20 23 22 22 19 19 17 20 19 17 12 13 13 12 13 10 6 4 3 4 4 7 6 5 3 3 2 2 3 2 7 3 6 6 4 5 4
12 9 30 20 10 8 10 4 5 8 6 16 20 22 17 19 18 17 15 15 14 16 16 16 14 12 11 6 6 6 5 4 4 5 6 5 3 3 4 3 4 3 3 4 5 3 5 5 4
16 9 24 23 5 12 13 1 4 12 17 15 14 20 13 13 14 15 18 16 15 16 16 16 15 12 10 9 7 6 6 6 6 5 6 4 4 4 3 3 4 3 3 3 4 4 4 5 6
9 19 20 10 7 6 7 3 6 13 18 16 14 9 8 9 9 12 17 16 18 18 17 16 15 13 11 9 10 8 7 7 6 5 6 7 5 4 4 4 4 4 3 2 3 4 4 3 3
12 6 2 5 5 3 1 4 6 16 18 17 15 12 8 9 8 13 18 15 19 14 17 17 14 12 12 12 11 8 8 6 6 6 7 7 6 6 5 4 4 4 4 4 2 2 3 4 2
5 4 2 3 6 4 8 3 10 4 19 16 16 15 15 13 10 11 11 15 14 11 15 15 13 14 13 12 8 7 6 6 6 5 5 8 8 7 6 4 4 4 4 2 2 3 3 3 4
4 2 2 0 3 1 5 1 2 2 8 17 16 15 15 12 8 9 11 12 12 12 14 15 13 15 13 10 7 6 7 6 5 4 5 7 8 8 6 5 5 4 3 3 3 3 3 3 3
5 2 3 3 2 5 2 3 6 5 8 2 7 15 15 14 15 11 10 11 13 9 13 15 11 13 11 7 4 3 4 4 4 5 5 7 5 7 6 4 5 4 3 3 3 5 4 3 1
8 4 2 2 6 3 2 3 5 5 5 5 2 8 15 15 12 13 11 11 12 10 12 13 13 12 8 4 4 3 5 4 3 6 7 7 6 6 6 4 5 5 5 5 3 3 4 3 2
7 6 6 5 12 5 2 5 9 10 11 8 7 6 14 14 8 12 7 7 13 13 13 12 11 7 8 6 4 3 3 3 3 3 5 6 6 6 5 5 6 6 4 4 5 5 2 2 3
2 6 7 5 7 6 6 7 9 7 5 7 3 5 11 16 15 12 10 13 13 13 14 13 13 10 10 8 3 2 1 1 1 3 3 5 6 6 6 6 5 5 4 4 5 4 6 4 3
4 15 11 13 7 2 4 5 6 6 15 11 10 8 10 7 9 15 13 12 16 17 14 12 11 13 12 9 6 7 5 5 4 3 3 4 5 6 6 7 7 7 4 5 5 4 3 4 5
9 14 13 3 6 6 3 3 9 3 9 17 11 5 2 4 4 14 18 15 16 15 15 13 11 11 12 12 11 9 6 4 2 3 5 5 5 7 6 7 7 7 5 5 5 4 4 3 3
11 8 3 5 5 4 7 8 5 2 5 3 3 5 5 10 7 3 7 5 10 13 14 13 13 11 11 12 10 12 9 6 4 4 3 4 4 4 6 6 6 6 5 4 3 4 5 4 4
5 6 0 4 5 6 3 3 7 5 2 5 3 4 7 9 13 9 11 3 3 6 8 10 13 12 10 12 9 8 8 8 8 5 4 3 3 2 5 4 4 2 3 4 2 3 3 3 3
8 8 7 4 3 4 3 4 5 6 12 15 16 3 15 5 10 9 12 6 6 5 3 8 7 7 7 6 8 8 7 4 4 5 7 5 5 3 4 2 0 6 6 4 3 3 3 5 4
4 3 6 9 3 4 2 2 6 9 4 10 10 9 10 11 9 17 18 8 8 6 5 9 10 4 5 7 5 4 2 3 3 11 8 4 6 1 3 4 4 7 8 6 3 4 4 6 8
11 9 5 4 5 3 4 2 5 6 5 9 6 2 3 7 18 14 3 6 4 5 6 8 9 5 4 5 4 5 2 4 7 6 5 3 1 4 5 5 5 3 3 3 4 3 4 3 3
1 2 6 7 6 7 5 6 7 11 9 11 11 5 4 6 10 6 2 6 3 7 7 9 9 9 6 6 5 4 5 6 5 5 4 4 4 4 4 5 5 5 4 3 3 4 0 3 4
7 10 8 7 6 2 4 7 10 17 18 7 3 4 3 7 5 7 8 9 8 6 7 7 7 7 6 6 6 6 6 6 6 5 4 3 4 5 5 5 5 3 2 3 3 4 3 2 7
Wind_Direction
149 201 268 64 53 35 30 49 117 116 63 110 151 184 136 346 140 183 133 137 135 140 146 141 133 134 131 133 129 126 128 124 112 107 109 108 107 110 112 110 111 110 118 124 121 125 127 132 134
123 141 34 50 75 49 319 312 82 94 115 115 110 107 68 72 78 118 119 136 135 139 144 144 138 138 139 139 132 134 134 124 124 117 115 117 113 108 109 114 113 115 119 120 126 132 124 123 127
175 17 69 65 67 120 281 71 79 77 79 74 113 92 92 98 105 148 129 131 131 132 137 142 140 142 147 143 137 141 130 135 133 128 124 119 115 115 113 117 116 114 119 118 117 121 126 130 137
177 20 50 72 11 300 281 140 152 108 29 108 113 74 68 105 116 127 133 128 129 133 137 143 147 146 151 145 141 140 141 130 122 123 121 116 116 118 117 117 121 122 131 137 132 127 133 139 147
67 60 106 81 247 214 238 213 173 110 124 103 109 101 100 125 123 133 135 135 132 135 144 147 150 151 153 150 146 148 138 137 132 132 124 121 118 117 120 127 133 131 125 115 126 140 136 137 143
87 145 83 149 211 262 249 120 114 108 106 104 98 117 110 139 139 146 141 137 138 140 144 152 154 154 158 151 150 151 146 139 131 128 126 126 123 123 128 135 141 147 143 145 152 170 164 175 163
247 190 352 107 193 207 239 159 124 125 136 131 137 109 135 151 149 143 134 135 141 146 148 153 157 160 160 157 152 150 145 141 138 139 139 137 137 122 119 102 126 169 167 168 175 176 186 192 205
187 183 89 352 202 156 197 152 112 149 127 130 130 152 161 161 149 127 127 132 135 143 147 155 155 151 147 156 157 155 150 153 154 159 156 146 145 152 153 129 145 220 208 195 189 202 205 213 218
122 45 70 308 165 174 169 123 137 140 135 152 191 158 155 138 133 128 132 134 139 147 153 157 159 153 148 157 170 162 163 168 170 169 160 157 151 174 196 197 254 199 237 226 217 211 211 219 220
63 8 9 345 222 160 189 136 135 118 126 94 103 133 125 132 142 142 148 155 159 164 170 171 172 165 160 170 175 168 176 173 164 170 161 158 188 199 209 217 234 209 227 246 232 227 223 224 202
62 1 337 344 339 112 155 122 121 117 118 149 140 152 143 144 149 154 167 169 174 169 171 179 181 181 173 175 175 175 179 174 178 176 183 189 210 216 224 232 240 258 248 241 245 237 230 211 193
101 33 8 323 310 35 327 108 108 129 161 156 145 160 150 157 163 165 169 171 168 173 182 183 186 187 185 162 179 181 184 179 189 194 185 188 195 214 232 235 259 225 245 237 228 219 229 226 209
110 104 176 236 300 20 29 355 105 119 135 149 132 154 164 169 179 173 174 178 171 180 187 189 186 187 184 175 175 184 192 187 192 189 196 188 202 212 218 223 237 243 242 237 234 229 212 217 212
158 162 202 254 22 355 13 308 98 134 135 143 143 156 167 178 170 168 175 178 179 186 188 186 191 185 179 179 181 188 192 195 184 190 208 202 202 210 212 226 234 243 229 255 231 231 210 237 225
138 113 216 54 2 309 279 33 114 144 147 151 159 170 190 207 190 176 182 175 178 189 184 185 187 178 178 182 183 184 192 186 190 201 207 212 209 212 218 213 229 227 232 247 231 199 203 210 226
93 69 44 296 154 297 75 66 57 89 155 165 172 182 190 204 195 197 177 176 187 170 180 179 181 181 183 186 183 184 186 191 205 206 200 219 215 208 210 215 229 230 234 229 236 237 230 223 232
45 132 270 46 117 213 64 222 199 30 195 172 180 190 191 201 203 193 193 174 181 169 172 178 177 181 183 188 183 180 182 195 207 212 203 217 213 211 205 212 230 235 246 243 236 252 200 210 236
185 202 237 185 158 197 113 216 247 121 124 72 225 190 195 201 207 198 182 178 181 163 169 176 179 183 181 177 163 167 198 214 198 219 220 215 210 212 198 214 230 219 216 243 241 227 209 207 180
147 163 196 133 203 100 97 331 262 337 257 183 158 236 200 204 207 195 192 175 177 170 167 179 185 194 171 159 161 187 208 205 199 214 221 217 201 208 211 215 231 211 213 216 204 213 223 257 188
116 116 279 88 154 94 13 295 287 283 271 194 165 200 218 204 185 189 178 171 180 178 179 177 185 181 190 192 191 163 183 219 193 206 212 200 211 205 207 215 220 224 230 236 209 205 185 198 206
148 159 220 168 147 68 100 326 290 280 287 333 178 222 211 205 190 183 178 185 181 186 185 187 177 185 193 188 142 85 79 328 171 237 236 215 206 212 211 217 217 222 207 227 220 206 208 201 220
126 230 245 143 133 199 124 263 273 258 295 296 277 266 203 212 202 187 186 194 189 198 190 188 179 180 193 176 184 189 181 205 218 208 221 243 222 229 214 212 211 213 203 228 230 204 209 159 200
199 236 248 91 113 101 260 68 265 106 259 266 256 257 306 51 283 206 195 194 202 197 193 189 187 186 187 190 195 198 211 207 237 232 232 238 247 236 226 205 209 211 202 223 210 223 182 192 163
177 240 31 354 133 115 212 197 287 161 253 33 87 88 203 84 51 271 269 234 222 206 201 190 185 194 190 190 190 192 198 204 218 238 249 250 249 248 230 216 205 212 201 215 212 214 210 202 203
95 78 23 11 28 202 210 140 244 280 177 148 291 73 118 88 102 64 355 206 57 209 218 209 187 196 193 200 202 199 200 199 219 224 222 259 261 244 251 230 248 244 55 45 12 31 305 259 229
180 154 149 171 196 249 281 208 266 243 254 56 5 296 94 88 116 116 216 222 183 161 59 203 202 184 174 188 215 191 208 203 205 49 358 315 272 249 295 248 33 132 124 151 92 87 48 358 286
204 140 169 106 353 84 188 342 310 324 89 74 31 46 139 164 176 189 212 242 229 126 20 159 153 150 167 202 240 260 197 291 95 138 214 237 292 231 40 81 92 113 128 145 144 92 46 9 341
164 159 71 9 135 201 293 260 203 246 210 154 100 295 204 211 199 215 223 278 353 6 65 100 98 110 69 39 70 65 46 71 72 84 89 109 61 59 82 74 86 81 77 99 117 97 95 57 353
132 149 59 113 132 159 160 245 206 223 222 229 153 179 226 180 210 184 164 258 88 63 97 102 101 88 88 84 82 63 48 64 71 96 95 76 71 72 80 82 94 108 138 142 102 111 184 72 180
205 197 151 130 207 155 158 252 193 210 225 249 151 104 238 172 171 149 134 104 103 125 98 102 94 92 83 88 82 69 69 71 69 61 61 59 79 59 88 105 122 102 97 128 162 172 160 61 111